Flag for Portugal Weather past 2 weeks in Guimarães, Portugal

Now
63 °F

Mild.


Feels Like: 63 °F
Forecast: 52 / 79 °F
Wind: 2 mph from Northeast

Location: Porto / Pedras Rubras

Current Time: Oct 25, 2014 at 6:57:00 AM

Latest Report: Oct 25, 2014 at 6:00 AM


Visibility: N/A

Pressure: 30.03 "Hg

Humidity: 73%

Dew point: 54 °F

Location of GuimarãesLocation

Historic Weather in Guimarães — Graph

°F

Guimarães temperature yesterday

Maximum temperature yesterday: 81 °F (at 2:00 PM)
Minimum temperature yesterday: 64 °F (at 8:00 AM)
Average temperature yesterday: 71 °F

Past Weeks' High & Low Weather Summary

 TemperatureHumidityPressure
High85 °F (Oct 20, 3:00 PM)94% (Oct 10, 10:00 AM)30.36 "Hg (Oct 10, 10:00 AM)
Low52 °F (Oct 14, 7:00 AM)34% (Oct 23, 1:00 PM)29.57 "Hg (Oct 12, 6:00 AM)
Average66 °F75%29.97 "Hg
* Reported Oct 10 5:00 AM — Oct 25 5:00 AM, Guimarães, Weather by CustomWeather, © 2014

Note: Actual official high and low records may vary slightly from our data, if they occured in-between our weather recording intervals... More about our weather records

Advertising

Guimarães weather history for previous 24 hours

 ConditionsComfort  
Time TempWeatherWind HumidityBarometerVisibility
5:00 AM
Oct 25
64 °FMild.3 mph71%30.02 "HgN/A
4:00 AM64 °FMild.2 mph70%30.03 "HgN/A
3:00 AM67 °FMild.5 mph66%30.03 "HgN/A
2:00 AM68 °FMild.5 mph68%30.04 "HgN/A
1:00 AM68 °FMild.5 mph70%30.05 "HgN/A
12:00 AM68 °FMild.5 mph74%30.05 "HgN/A
11:00 PM
Oct 24
68 °FMild.2 mph72%30.06 "HgN/A
10:00 PM70 °FMild.3 mph70%30.05 "HgN/A
9:00 PM72 °FMild.1 mph68%30.04 "HgN/A
8:00 PM74 °FMild.2 mph64%30.04 "HgN/A
7:00 PM73 °FMild.3 mph67%30.03 "HgN/A
6:00 PM77 °FWarm.3 mph56%30.03 "HgN/A
5:00 PM80 °FWarm.3 mph54%30.03 "HgN/A
4:00 PM79 °FWarm.5 mph54%30.04 "HgN/A
3:00 PM79 °FWarm.3 mph51%30.05 "HgN/A
2:00 PM81 °FWarm.3 mph41%30.06 "HgN/A
1:00 PM80 °FWarm.3 mph40%30.09 "HgN/A
12:00 PM75 °FMild.2 mph49%30.11 "HgN/A
11:00 AM72 °FMild.3 mph54%30.11 "HgN/A
10:00 AM69 °FMild.5 mph57%30.11 "HgN/A
9:00 AM66 °FMild.7 mph63%30.09 "HgN/A
8:00 AM64 °FMild.3 mph70%30.08 "HgN/A
7:00 AM65 °FMild.5 mph70%30.08 "HgN/A
6:00 AM65 °FMild.3 mph68%30.09 "HgN/A
Weather by CustomWeather, © 2014

See weather overviewHow to use our weather pages